EW8974 Weather Reports


Display with metric or nautical units.
time (UTC)temp
F
wind
direction
speed
MPH
gust
MPH
rain 1hr
in
rain 24hr
in
rain mn
in
humidity
%
barometer
mb
20260506212031 61 78 0.0 6.0 0.00 0.00 0.00 77 1007.1
20260506211530 61 154 1.0 7.0 0.00 0.00 0.00 76 1007.2
20260506211030 61 65 3.0 7.0 0.00 0.00 0.00 76 1007.2
20260506210530 61 27 2.0 7.0 0.00 0.00 0.00 77 1007.1
20260506210033 61 25 3.0 9.0 0.00 0.00 0.00 77 1007.1
20260506205533 61 172 2.0 9.0 0.00 0.00 0.00 78 1007.2
20260506205029 60 352 2.0 7.0 0.00 0.00 0.00 78 1007.2
20260506204529 60 87 1.0 8.0 0.00 0.00 0.00 80 1007.5
20260506204028 59 93 3.0 8.0 0.00 0.00 0.00 79 1007.6
20260506203531 59 68 2.0 8.0 0.00 0.00 0.00 79 1007.8
20260506203036 59 100 2.0 8.0 0.00 0.00 0.00 80 1007.8
20260506202529 59 58 2.0 7.0 0.00 0.00 0.00 80 1007.9
20260506202028 59 102 2.0 7.0 0.00 0.00 0.00 81 1008.0
20260506201535 58 105 1.0 5.0 0.00 0.00 0.00 82 1007.9
20260506201027 58 276 1.0 6.0 0.00 0.00 0.00 82 1008.2
20260506200527 58 108 2.0 6.0 0.00 0.00 0.00 82 1008.2
20260506200028 57 96 1.0 7.0 0.00 0.00 0.00 83 1008.2
20260506195529 57 53 3.0 7.0 0.00 0.00 0.00 83 1008.2
20260506195026 57 26 2.0 7.0 0.00 0.00 0.00 84 1008.1
20260506194526 57 304 2.0 7.0 0.00 0.00 0.00 84 1007.9
20260506194030 57 64 0.0 7.0 0.00 0.00 0.00 84 1008.3
20260506193526 56 44 2.0 8.0 0.00 0.00 0.00 84 1008.1
20260506193026 57 84 1.0 5.0 0.00 0.00 0.00 83 1008.3
20260506192527 57 340 0.0 5.0 0.00 0.00 0.00 83 1008.3
20260506192029 57 13 2.0 5.0 0.00 0.00 0.00 82 1008.2
20260506191527 57 329 1.0 7.0 0.00 0.00 0.00 82 1008.3
20260506191025 57 1 1.0 6.0 0.00 0.00 0.00 82 1008.2
20260506190528 57 16 2.0 6.0 0.00 0.00 0.00 83 1008.5
20260506190025 57 47 1.0 6.0 0.00 0.00 0.00 83 1008.5
20260506185524 57 347 1.0 7.0 0.00 0.00 0.00 83 1008.6
20260506185024 57 108 3.0 7.0 0.00 0.00 0.00 82 1008.5
20260506184526 57 64 0.0 6.0 0.00 0.00 0.00 83 1008.3
20260506184025 57 325 1.0 6.0 0.00 0.00 0.00 83 1008.4
20260506183525 57 49 2.0 8.0 0.00 0.00 0.00 83 1008.1
20260506183023 57 146 1.0 8.0 0.00 0.00 0.00 83 1007.9
20260506182523 57 41 2.0 6.0 0.00 0.00 0.00 83 1007.8
20260506182024 57 85 1.0 5.0 0.00 0.00 0.00 83 1008.0
20260506181523 57 65 1.0 3.0 0.00 0.00 0.00 83 1008.2
20260506181023 57 323 0.0 4.0 0.00 0.00 0.00 83 1008.3
20260506180523 57 295 1.0 4.0 0.00 0.00 0.00 83 1008.2
20260506180027 57 54 0.0 5.0 0.00 0.00 0.00 83 1008.3
20260506175524 57 141 0.0 8.0 0.00 0.00 0.00 83 1008.2
20260506175022 57 117 4.0 10.0 0.00 0.00 0.00 82 1007.5
20260506174523 57 37 4.0 10.0 0.00 0.00 0.00 82 1006.5
20260506174022 57 114 3.0 11.0 0.00 0.00 0.00 84 1006.3
20260506173524 57 37 4.0 11.0 0.00 0.00 0.00 84 1006.3
20260506173027 57 15 4.0 9.0 0.00 0.00 0.00 83 1006.2
20260506172521 57 53 3.0 9.0 0.00 0.00 0.00 83 1006.5
20260506172021 57 302 3.0 7.0 0.00 0.00 0.00 83 1006.8
20260506171521 57 110 2.0 7.0 0.00 0.00 0.00 83 1007.5
20260506171024 57 68 2.0 9.0 0.00 0.00 0.00 82 1007.5
20260506170520 58 51 3.0 7.0 0.00 0.00 0.00 82 1007.7
20260506170021 57 66 2.0 6.0 0.00 0.00 0.00 82 1007.5
20260506165519 57 67 2.0 5.0 0.00 0.00 0.00 82 1008.3
20260506165019 57 82 0.0 5.0 0.00 0.00 0.00 82 1008.6
20260506164519 57 69 2.0 6.0 0.00 0.00 0.00 81 1008.4
20260506164019 57 85 2.0 6.0 0.00 0.00 0.00 82 1008.2
20260506163521 57 104 2.0 11.0 0.00 0.00 0.00 82 1007.9
20260506163028 56 113 4.0 15.0 0.00 0.00 0.00 82 1007.8
20260506162521 56 113 5.0 15.0 0.00 0.00 0.00 82 1007.1
20260506162022 56 39 4.0 11.0 0.00 0.00 0.00 84 1007.2
20260506161519 56 89 4.0 10.0 0.00 0.00 0.00 84 1007.4
20260506161018 55 85 3.0 11.0 0.00 0.00 0.00 85 1007.5
20260506160518 55 81 2.0 11.0 0.00 0.00 0.00 85 1007.7
20260506160020 55 74 2.0 9.0 0.00 0.00 0.00 85 1007.7
20260506155516 55 121 2.0 9.0 0.00 0.00 0.00 86 1007.8
20260506155016 54 51 2.0 7.0 0.00 0.00 0.00 86 1008.0
20260506154516 54 62 2.0 9.0 0.00 0.00 0.00 87 1008.2
20260506154018 54 81 2.0 9.0 0.00 0.00 0.00 86 1007.8
20260506153516 54 283 1.0 6.0 0.00 0.00 0.00 87 1007.8
20260506153016 54 89 2.0 6.0 0.00 0.00 0.00 86 1007.9
20260506152515 54 74 3.0 6.0 0.00 0.00 0.00 86 1008.1
20260506152015 54 16 2.0 6.0 0.00 0.00 0.00 86 1008.5
20260506151514 54 74 1.0 6.0 0.00 0.00 0.00 85 1008.8
20260506151016 54 300 1.0 9.0 0.00 0.00 0.00 85 1009.0
20260506150513 54 349 3.0 9.0 0.00 0.00 0.00 84 1008.4
20260506150012 54 72 2.0 8.0 0.00 0.00 0.00 84 1009.0
20260506145511 54 68 2.0 10.0 0.00 0.00 0.00 83 1009.2
20260506145010 54 309 2.0 10.0 0.00 0.00 0.00 83 1009.1
20260506144509 54 130 1.0 7.0 0.00 0.00 0.00 83 1008.7
20260506144007 55 71 2.0 6.0 0.00 0.00 0.00 83 1008.6
20260506143507 55 352 1.0 8.0 0.00 0.00 0.00 83 1008.4
20260506143005 55 88 2.0 8.0 0.00 0.00 0.00 82 1008.2
20260506142506 55 46 1.0 8.0 0.00 0.00 0.00 82 1008.0
20260506142007 55 17 2.0 11.0 0.00 0.00 0.00 82 1007.9
20260506141503 55 269 2.0 8.0 0.00 0.00 0.00 82 1007.3
20260506141004 55 94 3.0 9.0 0.00 0.00 0.00 82 1007.1
20260506140501 55 100 4.0 8.0 0.00 0.00 0.00 81 1007.2
20260506140001 55 66 2.0 8.0 0.00 0.00 0.00 81 1007.2
20260506135600 55 119 3.0 8.0 0.00 0.00 0.00 80 1007.0
20260506135059 55 41 3.0 8.0 0.00 0.00 0.00 80 1007.3
20260506134558 55 41 2.0 7.0 0.00 0.00 0.00 81 1007.0
20260506134058 55 36 2.0 8.0 0.00 0.00 0.00 81 1006.6
20260506133557 55 65 1.0 9.0 0.00 0.00 0.00 81 1006.8
20260506133057 55 67 3.0 9.0 0.00 0.00 0.00 81 1006.7
20260506132557 55 83 3.0 9.0 0.00 0.00 0.00 81 1006.7
20260506132053 55 40 4.0 9.0 0.00 0.00 0.00 81 1006.4
20260506131601 55 70 2.0 11.0 0.00 0.00 0.00 81 1006.5
20260506131051 55 108 2.0 11.0 0.00 0.00 0.00 81 1006.7
20260506130550 55 64 1.0 11.0 0.00 0.00 0.00 81 1006.5
20260506130101 55 43 4.0 11.0 0.00 0.00 0.00 81 1006.3
20260506125548 55 54 2.0 9.0 0.00 0.00 0.00 81 1006.5
20260506125047 55 290 1.0 11.0 0.00 0.00 0.00 81 1006.5
20260506124553 55 51 3.0 11.0 0.00 0.00 0.00 81 1006.4
20260506124045 55 53 2.0 8.0 0.00 0.00 0.00 81 1006.0
20260506123544 56 25 4.0 8.0 0.00 0.00 0.00 81 1006.1
20260506123044 55 73 1.0 8.0 0.00 0.00 0.00 81 1006.0
20260506122546 55 40 2.0 8.0 0.00 0.00 0.00 82 1006.1
20260506122042 55 52 1.0 9.0 0.00 0.00 0.00 82 1005.9
20260506121541 56 59 2.0 8.0 0.00 0.00 0.00 82 1005.8
20260506121041 56 35 3.0 9.0 0.00 0.00 0.00 81 1005.7
20260506120542 56 55 3.0 9.0 0.00 0.00 0.00 81 1005.9
20260506120040 56 116 2.0 8.0 0.00 0.00 0.00 82 1005.7
20260506115537 56 54 2.0 7.0 0.00 0.00 0.00 82 1005.8
20260506115036 56 359 1.0 7.0 0.00 0.00 0.00 82 1005.6
20260506114539 56 70 3.0 7.0 0.00 0.00 0.00 82 1005.5
20260506114035 56 338 2.0 8.0 0.00 0.00 0.00 81 1005.4
20260506113537 56 54 1.0 8.0 0.00 0.00 0.00 81 1005.2
20260506113041 57 1 2.0 6.0 0.00 0.00 0.00 81 1005.2
20260506112533 57 321 2.0 6.0 0.00 0.00 0.00 81 1005.1
20260506112035 57 300 2.0 6.0 0.00 0.00 0.00 82 1004.9
20260506111633 57 39 1.0 6.0 0.00 0.00 0.00 81 1005.0
20260506111031 57 49 1.0 7.0 0.00 0.00 0.00 81 1004.7
20260506110531 57 81 1.0 10.0 0.00 0.00 0.00 81 1004.8
20260506110033 57 118 3.0 9.0 0.00 0.00 0.00 81 1004.7
20260506105529 57 49 3.0 9.0 0.00 0.00 0.00 81 1004.7
20260506105031 57 56 1.0 9.0 0.00 0.00 0.00 82 1004.6
20260506104529 57 283 2.0 9.0 0.00 0.00 0.00 83 1004.5
20260506104026 57 56 2.0 5.0 0.00 0.00 0.00 84 1004.4
20260506103525 57 41 1.0 7.0 0.00 0.00 0.00 85 1004.3
20260506103032 57 87 1.0 9.0 0.00 0.00 0.00 85 1004.3
20260506102524 57 23 2.0 9.0 0.00 0.00 0.00 86 1004.1
20260506102023 57 13 1.0 5.0 0.00 0.00 0.00 86 1004.1
20260506101538 57 70 1.0 5.0 0.00 0.00 0.00 86 1003.9
20260506101023 57 51 1.0 5.0 0.00 0.00 0.00 87 1003.9
20260506100521 57 332 1.0 5.0 0.00 0.00 0.00 87 1004.0
20260506100021 57 307 0.0 4.0 0.00 0.00 0.00 88 1003.9
20260506095519 57 22 1.0 4.0 0.00 0.00 0.00 88 1003.6
20260506095022 57 34 1.0 4.0 0.00 0.00 0.00 88 1003.6
20260506094523 57 57 1.0 5.0 0.00 0.00 0.00 88 1003.6
20260506094022 57 5 1.0 5.0 0.00 0.00 0.00 88 1003.6
20260506093517 57 63 1.0 5.0 0.00 0.00 0.00 88 1003.5
20260506093021 57 352 0.0 5.0 0.00 0.00 0.00 88 1003.6
20260506092515 58 51 1.0 5.0 0.00 0.00 0.00 87 1003.6
20260506092016 58 44 1.0 6.0 0.00 0.00 0.00 87 1003.7
20260506091515 58 64 1.0 6.0 0.00 0.00 0.00 86 1003.5
20260506091013 58 1 0.0 5.0 0.00 0.00 0.00 85 1003.5
20260506090512 59 354 1.0 4.0 0.00 0.00 0.00 84 1003.5
20260506090010 59 341 1.0 5.0 0.00 0.00 0.00 84 1003.5
20260506085508 60 47 0.0 5.0 0.00 0.00 0.00 83 1003.4
20260506085006 60 30 0.0 5.0 0.00 0.00 0.00 81 1003.3
20260506084505 61 53 1.0 5.0 0.00 0.00 0.00 80 1003.3
20260506084004 61 56 2.0 6.0 0.00 0.00 0.00 79 1003.0
20260506083504 61 33 0.0 6.0 0.00 0.00 0.00 79 1003.2
20260506083004 61 320 1.0 4.0 0.00 0.00 0.00 80 1003.0
20260506082504 61 91 0.0 4.0 0.00 0.00 0.00 80 1002.9
20260506082001 61 18 0.0 4.0 0.00 0.00 0.00 80 1003.0
20260506081501 61 53 0.0 4.0 0.00 0.00 0.00 80 1002.8
20260506081003 61 79 1.0 5.0 0.00 0.00 0.00 80 1002.7
20260506080601 62 34 2.0 5.0 0.00 0.00 0.00 80 1002.7
20260506073056 62 48 2.0 4.0 0.00 0.00 0.00 80 1003.0
20260506072557 62 314 1.0 5.0 0.00 0.00 0.00 80 1003.1
20260506072054 63 115 2.0 6.0 0.00 0.00 0.00 80 1003.1
20260506071556 63 51 2.0 6.0 0.00 0.00 0.00 80 1003.1
20260506071054 63 70 0.0 6.0 0.00 0.00 0.00 79 1003.1
20260506070553 63 82 2.0 8.0 0.00 0.00 0.00 79 1003.2
20260506062047 64 39 1.0 8.0 0.00 0.00 0.00 79 1003.0
20260506061547 64 34 0.0 8.0 0.00 0.00 0.00 79 1003.0
20260506061046 64 3 1.0 6.0 0.00 0.00 0.00 79 1002.9
20260506060547 64 314 1.0 5.0 0.00 0.00 0.00 79 1002.8
20260506051034 68 74 2.0 8.0 0.00 0.00 0.00 77 1002.8
20260506050533 68 56 1.0 7.0 0.00 0.00 0.00 77 1002.8
20260506045030 69 55 2.0 9.0 0.00 0.00 0.00 76 1002.5
20260506044559 69 69 2.0 9.0 0.00 0.00 0.00 76 1002.7
20260506044031 69 304 1.0 9.0 0.00 0.00 0.00 76 1002.8
20260506043529 69 25 1.0 5.0 0.00 0.00 0.00 76 1002.6
20260506043031 69 20 1.0 7.0 0.00 0.00 0.00 76 1002.6
20260506042528 69 302 0.0 7.0 0.00 0.00 0.00 75 1002.6
20260506042027 70 356 1.0 5.0 0.00 0.00 0.00 74 1002.6
20260506041526 70 321 1.0 5.0 0.00 0.00 0.00 74 1002.5
20260506041030 70 52 1.0 8.0 0.00 0.00 0.00 74 1002.4
20260506040525 70 59 2.0 7.0 0.00 0.00 0.00 73 1002.3
20260506040028 70 330 1.0 6.0 0.00 0.00 0.00 73 1002.4
20260506035526 71 349 1.0 5.0 0.00 0.00 0.00 73 1002.2
20260506035022 71 77 2.0 5.0 0.00 0.00 0.00 73 1002.0
20260506034543 71 44 1.0 5.0 0.00 0.00 0.00 73 1001.8
20260506034022 71 46 2.0 6.0 0.00 0.00 0.00 72 1001.6
20260506033522 71 46 1.0 7.0 0.00 0.00 0.00 72 1001.7
20260506033021 71 56 2.0 7.0 0.00 0.00 0.00 71 1001.5
20260506032521 72 98 2.0 7.0 0.00 0.00 0.00 71 1001.5
20260506032024 72 75 2.0 6.0 0.00 0.00 0.00 71 1001.5
20260506031521 72 53 0.0 9.0 0.00 0.00 0.00 71 1001.5
20260506031021 72 68 3.0 9.0 0.00 0.00 0.00 71 1001.6
20260506030522 73 61 1.0 7.0 0.00 0.00 0.00 70 1001.5
20260506030019 73 41 2.0 6.0 0.00 0.00 0.00 70 1001.5
20260506025518 74 19 1.0 7.0 0.00 0.00 0.00 71 1001.4
20260506025018 74 36 2.0 7.0 0.00 0.00 0.00 70 1001.1
20260506024517 74 12 2.0 6.0 0.00 0.00 0.00 71 1001.0
20260506024017 75 39 1.0 5.0 0.00 0.00 0.00 71 1000.9
20260506023519 75 40 1.0 7.0 0.00 0.00 0.00 70 1000.7
20260506023017 76 72 2.0 7.0 0.00 0.00 0.00 70 1000.6
20260506022516 77 13 1.0 4.0 0.00 0.00 0.00 75 1000.5
20260506022016 77 329 0.0 2.0 0.00 0.00 0.00 81 1000.1
20260506021516 77 310 0.0 1.0 0.00 0.00 0.00 82 999.9
20260506021016 77 154 0.0 0.0 0.00 0.00 0.00 82 999.7
20260506020515 77 154 0.0 1.0 0.00 0.00 0.00 82 999.8
20260506020016 77 154 0.0 1.0 0.00 0.00 0.00 82 999.8
20260506015517 77 151 0.0 0.0 0.00 0.00 0.00 82 999.7
20260506015015 77 151 0.0 0.0 0.00 0.00 0.00 81 999.5
20260506014517 77 151 0.0 0.0 0.00 0.00 0.00 81 999.7
20260506014014 78 151 0.0 0.0 0.00 0.00 0.00 80 999.5
20260506013514 78 151 0.0 0.0 0.00 0.00 0.00 79 999.5
20260506013015 78 151 0.0 0.0 0.00 0.00 0.00 79 999.3
20260506012514 78 151 0.0 1.0 0.00 0.00 0.00 78 999.3
20260506012015 79 151 0.0 2.0 0.00 0.00 0.00 78 999.4
20260506011517 79 320 0.0 5.0 0.00 0.00 0.00 78 999.3
20260506011018 79 299 2.0 5.0 0.00 0.00 0.00 78 999.0
20260506010514 79 195 1.0 5.0 0.00 0.00 0.00 77 998.7
20260506010014 79 239 1.0 4.0 0.00 0.00 0.00 77 998.6
20260506005513 79 231 1.0 5.0 0.00 0.00 0.00 77 998.6
20260506005013 80 249 1.0 6.0 0.00 0.00 0.00 77 998.6
20260506004529 80 214 1.0 6.0 0.00 0.00 0.00 76 998.5
20260506004014 80 198 1.0 6.0 0.00 0.00 0.00 76 998.5
20260506003512 80 181 1.0 5.0 0.00 0.00 0.00 76 998.5
20260506003113 80 223 1.0 5.0 0.00 0.00 0.00 75 998.5
20260506002511 81 163 1.0 7.0 0.00 0.00 0.00 75 998.5
20260506002012 81 143 3.0 8.0 0.00 0.00 0.00 74 998.5
20260506001511 81 237 1.0 8.0 0.00 0.00 0.00 74 998.4
20260506001012 81 247 1.0 8.0 0.00 0.00 0.00 75 998.3
20260506000510 81 200 1.0 9.0 0.00 0.00 0.00 75 998.4
20260506000011 81 248 3.0 9.0 0.00 0.00 0.00 74 998.4
20260505235510 82 214 2.0 7.0 0.00 0.00 0.00 74 998.3
20260505235010 82 205 1.0 6.0 0.00 0.00 0.00 73 998.3
20260505234513 82 245 1.0 7.0 0.00 0.00 0.00 73 998.5
20260505234014 82 148 2.0 7.0 0.00 0.00 0.00 72 998.4
20260505233513 83 242 1.0 10.0 0.00 0.00 0.00 72 998.3
20260505233010 83 269 3.0 10.0 0.00 0.00 0.00 71 998.4
20260505232509 83 226 1.0 8.0 0.00 0.00 0.00 71 998.4
20260505232009 83 203 3.0 8.0 0.00 0.00 0.00 70 998.3
20260505231513 84 203 1.0 11.0 0.00 0.00 0.00 69 998.2
20260505231009 84 169 4.0 11.0 0.00 0.00 0.00 69 998.2
20260505230509 85 214 1.0 8.0 0.00 0.00 0.00 68 998.1
20260505230011 86 193 3.0 11.0 0.00 0.00 0.00 67 998.1
20260505225508 86 151 4.0 11.0 0.00 0.00 0.00 66 998.0
20260505225009 87 168 3.0 9.0 0.00 0.00 0.00 66 997.8
20260505224509 87 228 4.0 9.0 0.00 0.00 0.00 65 997.8
20260505224007 87 36 1.0 10.0 0.00 0.00 0.00 66 997.8
20260505223507 88 233 4.0 10.0 0.00 0.00 0.00 64 997.8
20260505223008 88 236 5.0 10.0 0.00 0.00 0.00 64 997.7
20260505222509 88 228 4.0 9.0 0.00 0.00 0.00 64 997.7
20260505222007 88 184 3.0 11.0 0.00 0.00 0.00 63 997.8
20260505221507 88 234 6.0 11.0 0.00 0.00 0.00 62 997.7
20260505221008 89 217 1.0 10.0 0.00 0.00 0.00 62 997.7
20260505220507 89 233 2.0 8.0 0.00 0.00 0.00 62 997.7
20260505220016 89 181 2.0 8.0 0.00 0.00 0.00 62 998.0
20260505215506 89 187 1.0 12.0 0.00 0.00 0.00 62 997.7
20260505215005 89 237 7.0 12.0 0.00 0.00 0.00 58 997.7
20260505214505 89 199 3.0 8.0 0.00 0.00 0.00 61 997.7
20260505214005 89 203 3.0 8.0 0.00 0.00 0.00 61 997.7
20260505213503 89 233 1.0 7.0 0.00 0.00 0.00 62 997.7
20260505213002 89 219 2.0 11.0 0.00 0.00 0.00 61 997.9
20260505212503 89 205 5.0 11.0 0.00 0.00 0.00 59 998.0